Time,TemperatureF,DewpointF,PressureIn,WindDirection,WindDirectionDegrees,WindSpeedMPH,WindSpeedGustMPH,Humidity,HourlyPrecipIn,Conditions,Clouds,dailyrainin,SoftwareType,DateUTC
2013-09-02 00:04:00,61.3,55.8,24.87,SSE,158,4.0,-999.0,82,-99.99,,,-99.99,dwt +perl,2013-09-02 07:04:00,
2013-09-02 00:09:00,61.5,54.2,24.86,SSE,162,6.0,-999.0,77,-99.99,,,-99.99,dwt +perl,2013-09-02 07:09:00,
2013-09-02 00:14:00,61.7,55.1,24.86,SSE,162,6.0,-999.0,79,-99.99,,,-99.99,dwt +perl,2013-09-02 07:14:00,
2013-09-02 00:19:00,61.6,55.0,24.87,SE,146,6.0,-999.0,79,-99.99,,,-99.99,dwt +perl,2013-09-02 07:19:00,
2013-09-02 00:24:00,61.4,55.2,24.87,SE,130,6.0,-999.0,80,-99.99,,,-99.99,dwt +perl,2013-09-02 07:24:00,
2013-09-02 00:29:00,61.3,55.1,24.87,SSE,153,5.0,-999.0,80,-99.99,,,-99.99,dwt +perl,2013-09-02 07:29:00,
2013-09-02 00:34:00,61.2,55.0,24.87,SSE,163,6.0,-999.0,80,-99.99,,,-99.99,dwt +perl,2013-09-02 07:34:00,
2013-09-02 00:39:00,61.1,55.6,24.87,SSE,160,3.0,-999.0,82,-99.99,,,-99.99,dwt +perl,2013-09-02 07:39:00,
2013-09-02 00:44:00,61.0,55.5,24.87,South,170,4.0,-999.0,82,-99.99,,,-99.99,dwt +perl,2013-09-02 07:44:00,
2013-09-02 00:49:00,61.0,55.8,24.87,South,172,2.0,-999.0,83,-99.99,,,-99.99,dwt +perl,2013-09-02 07:49:00,
2013-09-02 00:54:00,60.9,55.7,24.87,South,174,4.0,-999.0,83,-99.99,,,-99.99,dwt +perl,2013-09-02 07:54:00,
2013-09-02 00:59:00,60.8,55.6,24.87,SSE,166,4.0,-999.0,83,-99.99,,,-99.99,dwt +perl,2013-09-02 07:59:00,
2013-09-02 01:04:00,60.6,55.7,24.87,SSE,166,5.0,-999.0,84,-99.99,,,-99.99,dwt +perl,2013-09-02 08:04:00,
2013-09-02 01:09:00,60.5,56.0,24.87,South,169,5.0,-999.0,85,-99.99,,,-99.99,dwt +perl,2013-09-02 08:09:00,
2013-09-02 01:14:00,60.4,55.5,24.87,South,169,6.0,-999.0,84,-99.99,,,-99.99,dwt +perl,2013-09-02 08:14:00,
2013-09-02 01:19:00,60.0,55.5,24.87,South,171,5.0,-999.0,85,-99.99,,,-99.99,dwt +perl,2013-09-02 08:19:00,
2013-09-02 01:24:00,60.0,55.8,24.87,South,174,6.0,-999.0,86,-99.99,,,-99.99,dwt +perl,2013-09-02 08:24:00,
2013-09-02 01:29:00,60.0,56.1,24.87,South,174,3.0,-999.0,87,-99.99,,,-99.99,dwt +perl,2013-09-02 08:29:00,
2013-09-02 01:34:00,59.9,56.0,24.87,South,174,2.0,-999.0,87,-99.99,,,-99.99,dwt +perl,2013-09-02 08:34:00,
2013-09-02 01:39:00,59.8,55.9,24.86,South,178,3.0,-999.0,87,-99.99,,,-99.99,dwt +perl,2013-09-02 08:39:00,
2013-09-02 01:44:00,59.7,56.1,24.86,South,181,3.0,-999.0,88,-99.99,,,-99.99,dwt +perl,2013-09-02 08:44:00,
2013-09-02 01:49:00,59.8,56.5,24.86,South,170,4.0,-999.0,89,-99.99,,,-99.99,dwt +perl,2013-09-02 08:49:00,
2013-09-02 01:54:00,59.9,56.3,24.86,South,174,2.0,-999.0,88,-99.99,,,-99.99,dwt +perl,2013-09-02 08:54:00,
2013-09-02 01:59:00,59.9,56.6,24.86,South,179,2.0,-999.0,89,-99.99,,,-99.99,dwt +perl,2013-09-02 08:59:00,
2013-09-02 02:04:00,59.9,56.6,24.86,South,181,4.0,-999.0,89,-99.99,,,-99.99,dwt +perl,2013-09-02 09:04:00,
2013-09-02 02:09:00,59.8,56.5,24.86,South,189,8.0,-999.0,89,-99.99,,,-99.99,dwt +perl,2013-09-02 09:09:00,
2013-09-02 02:14:00,59.8,56.5,24.86,South,191,4.0,-999.0,89,-99.99,,,-99.99,dwt +perl,2013-09-02 09:14:00,
2013-09-02 02:19:00,59.7,56.8,24.86,SSW,193,8.0,-999.0,90,-99.99,,,-99.99,dwt +perl,2013-09-02 09:19:00,
2013-09-02 02:29:00,60.0,57.0,24.85,SSW,207,6.0,-999.0,90,-99.99,,,-99.99,dwt +perl,2013-09-02 09:29:00,
2013-09-02 02:34:00,59.9,57.0,24.86,SSW,201,7.0,-999.0,90,-99.99,,,-99.99,dwt +perl,2013-09-02 09:34:00,
2013-09-02 02:39:00,59.8,56.8,24.86,SSW,207,7.0,-999.0,90,-99.99,,,-99.99,dwt +perl,2013-09-02 09:39:00,
2013-09-02 02:44:00,59.7,56.8,24.85,SSW,207,6.0,-999.0,90,-99.99,,,-99.99,dwt +perl,2013-09-02 09:44:00,
2013-09-02 02:49:00,59.5,56.9,24.85,SSW,208,5.0,-999.0,91,-99.99,,,-99.99,dwt +perl,2013-09-02 09:49:00,
2013-09-02 02:54:00,59.5,56.9,24.85,SSW,210,7.0,-999.0,91,-99.99,,,-99.99,dwt +perl,2013-09-02 09:54:00,
2013-09-02 02:59:00,59.6,57.0,24.85,SSW,209,7.0,-999.0,91,-99.99,,,-99.99,dwt +perl,2013-09-02 09:59:00,
2013-09-02 03:04:00,59.7,57.1,24.85,SSW,210,4.0,-999.0,91,-99.99,,,-99.99,dwt +perl,2013-09-02 10:04:00,
2013-09-02 03:09:00,59.8,57.2,24.85,SSW,210,5.0,-999.0,91,-99.99,,,-99.99,dwt +perl,2013-09-02 10:09:00,
2013-09-02 03:14:00,59.9,57.3,24.85,SSW,209,4.0,-999.0,91,-99.99,,,-99.99,dwt +perl,2013-09-02 10:14:00,
2013-09-02 03:19:00,59.9,57.3,24.85,SSW,209,5.0,-999.0,91,-99.99,,,-99.99,dwt +perl,2013-09-02 10:19:00,
2013-09-02 03:24:00,59.9,57.3,24.85,SSW,210,6.0,-999.0,91,-99.99,,,-99.99,dwt +perl,2013-09-02 10:24:00,
2013-09-02 03:29:00,59.9,57.3,24.85,SSW,210,7.0,-999.0,91,-99.99,,,-99.99,dwt +perl,2013-09-02 10:29:00,
2013-09-02 03:39:00,60.0,57.4,24.85,SSW,210,7.0,-999.0,91,-99.99,,,-99.99,dwt +perl,2013-09-02 10:39:00,
2013-09-02 03:44:00,60.0,57.4,24.85,SSW,210,7.0,-999.0,91,-99.99,,,-99.99,dwt +perl,2013-09-02 10:44:00,
2013-09-02 03:54:00,60.2,57.2,24.85,SSW,209,7.0,-999.0,90,-99.99,,,-99.99,dwt +perl,2013-09-02 10:54:00,
2013-09-02 04:04:00,60.2,57.2,24.84,SSW,210,7.0,-999.0,90,-99.99,,,-99.99,dwt +perl,2013-09-02 11:04:00,
2013-09-02 04:09:00,60.2,57.2,24.84,SSW,209,5.0,-999.0,90,-99.99,,,-99.99,dwt +perl,2013-09-02 11:09:00,
2013-09-02 04:19:00,60.3,57.0,24.84,SSW,210,6.0,-999.0,89,-99.99,,,-99.99,dwt +perl,2013-09-02 11:19:00,
2013-09-02 04:24:00,60.4,57.1,24.84,SSW,210,7.0,-999.0,89,-99.99,,,-99.99,dwt +perl,2013-09-02 11:24:00,
2013-09-02 04:34:00,60.3,57.0,24.84,SSW,210,6.0,-999.0,89,-99.99,,,-99.99,dwt +perl,2013-09-02 11:34:00,
2013-09-02 04:39:00,60.3,57.0,24.84,SSW,210,6.0,-999.0,89,-99.99,,,-99.99,dwt +perl,2013-09-02 11:39:00,
2013-09-02 04:44:00,60.2,56.9,24.84,SSW,210,7.0,-999.0,89,-99.99,,,-99.99,dwt +perl,2013-09-02 11:44:00,
2013-09-02 04:49:00,60.1,56.8,24.84,SSW,209,7.0,-999.0,89,-99.99,,,-99.99,dwt +perl,2013-09-02 11:49:00,
2013-09-02 04:54:00,60.1,57.2,24.84,SSW,210,5.0,-999.0,90,-99.99,,,-99.99,dwt +perl,2013-09-02 11:54:00,
2013-09-02 05:09:00,60.1,57.2,24.84,SSW,210,1.0,-999.0,90,-99.99,,,-99.99,dwt +perl,2013-09-02 12:09:00,
2013-09-02 05:14:00,60.2,57.2,24.85,SSW,210,6.0,-999.0,90,-99.99,,,-99.99,dwt +perl,2013-09-02 12:14:00,
2013-09-02 05:19:00,60.2,57.2,24.84,SSW,210,6.0,-999.0,90,-99.99,,,-99.99,dwt +perl,2013-09-02 12:19:00,
2013-09-02 05:24:00,60.2,57.2,24.85,SSW,210,5.0,-999.0,90,-99.99,,,-99.99,dwt +perl,2013-09-02 12:24:00,
2013-09-02 05:29:00,60.2,57.2,24.85,SSW,210,5.0,-999.0,90,-99.99,,,-99.99,dwt +perl,2013-09-02 12:29:00,
2013-09-02 05:34:00,60.1,57.2,24.85,SSW,210,3.0,-999.0,90,-99.99,,,-99.99,dwt +perl,2013-09-02 12:34:00,
2013-09-02 05:44:00,60.0,57.0,24.85,SSW,210,7.0,-999.0,90,-99.99,,,-99.99,dwt +perl,2013-09-02 12:44:00,
2013-09-02 05:49:00,60.1,57.2,24.85,SSW,210,4.0,-999.0,90,-99.99,,,-99.99,dwt +perl,2013-09-02 12:49:00,
2013-09-02 05:54:00,60.0,57.4,24.85,SSW,210,5.0,-999.0,91,-99.99,,,-99.99,dwt +perl,2013-09-02 12:54:00,
2013-09-02 05:59:00,60.0,57.4,24.85,SSW,210,5.0,-999.0,91,-99.99,,,-99.99,dwt +perl,2013-09-02 12:59:00,
2013-09-02 06:04:00,60.0,57.4,24.85,SSW,210,1.0,-999.0,91,-99.99,,,-99.99,dwt +perl,2013-09-02 13:04:00,
2013-09-02 06:14:00,59.8,57.2,24.86,SSW,210,1.0,-999.0,91,-99.99,,,-99.99,dwt +perl,2013-09-02 13:14:00,
2013-09-02 06:19:00,59.9,57.3,24.86,SSW,210,1.0,-999.0,91,-99.99,,,-99.99,dwt +perl,2013-09-02 13:19:00,
2013-09-02 06:34:00,59.6,57.3,24.86,SSW,210,4.0,-999.0,92,-99.99,,,-99.99,dwt +perl,2013-09-02 13:34:00,
2013-09-02 06:39:00,59.5,57.2,24.86,SSW,210,2.0,-999.0,92,-99.99,,,-99.99,dwt +perl,2013-09-02 13:39:00,
2013-09-02 06:44:00,59.1,56.8,24.86,SSW,210,0.0,-999.0,92,-99.99,,,-99.99,dwt +perl,2013-09-02 13:44:00,
2013-09-02 06:49:00,58.9,56.6,24.86,SSW,210,0.0,-999.0,92,-99.99,,,-99.99,dwt +perl,2013-09-02 13:49:00,
2013-09-02 06:54:00,58.9,56.9,24.87,SSW,210,2.0,-999.0,93,-99.99,,,-99.99,dwt +perl,2013-09-02 13:54:00,
2013-09-02 07:09:00,58.9,56.9,24.87,SSW,210,4.0,-999.0,93,-99.99,,,-99.99,dwt +perl,2013-09-02 14:09:00,
2013-09-02 07:14:00,58.8,56.8,24.87,SSW,210,3.0,-999.0,93,-99.99,,,-99.99,dwt +perl,2013-09-02 14:14:00,
2013-09-02 07:19:00,59.1,57.4,24.87,SSW,210,3.0,-999.0,94,-99.99,,,-99.99,dwt +perl,2013-09-02 14:19:00,
2013-09-02 07:29:00,59.3,57.6,24.88,SSW,210,1.0,-999.0,94,-99.99,,,-99.99,dwt +perl,2013-09-02 14:29:00,
2013-09-02 07:34:00,59.2,57.5,24.87,SSW,210,1.0,-999.0,94,-99.99,,,-99.99,dwt +perl,2013-09-02 14:34:00,
2013-09-02 07:44:00,59.4,57.7,24.88,SSW,210,1.0,-999.0,94,-99.99,,,-99.99,dwt +perl,2013-09-02 14:44:00,
2013-09-02 07:49:00,59.5,57.8,24.88,SSW,210,1.0,-999.0,94,-99.99,,,-99.99,dwt +perl,2013-09-02 14:49:00,
2013-09-02 07:54:00,59.7,57.7,24.88,SSW,210,2.0,-999.0,93,-99.99,,,-99.99,dwt +perl,2013-09-02 14:54:00,
2013-09-02 07:59:00,59.6,57.9,24.88,SSW,210,0.0,-999.0,94,-99.99,,,-99.99,dwt +perl,2013-09-02 14:59:00,
2013-09-02 08:09:00,59.6,57.9,24.88,SSW,210,4.0,-999.0,94,-99.99,,,-99.99,dwt +perl,2013-09-02 15:09:00,
2013-09-02 08:14:00,59.6,57.6,24.88,SSW,210,2.0,-999.0,93,-99.99,,,-99.99,dwt +perl,2013-09-02 15:14:00,
2013-09-02 08:19:00,59.6,57.9,24.88,SSW,210,1.0,-999.0,94,-99.99,,,-99.99,dwt +perl,2013-09-02 15:19:00,
2013-09-02 08:34:00,59.8,58.1,24.88,SSW,210,4.0,-999.0,94,-99.99,,,-99.99,dwt +perl,2013-09-02 15:34:00,
2013-09-02 08:39:00,60.0,58.3,24.89,SSW,210,3.0,-999.0,94,-99.99,,,-99.99,dwt +perl,2013-09-02 15:39:00,
2013-09-02 08:44:00,60.0,58.0,24.89,SSW,210,3.0,-999.0,93,-99.99,,,-99.99,dwt +perl,2013-09-02 15:44:00,
2013-09-02 08:49:00,60.2,58.2,24.89,SSW,210,4.0,-999.0,93,-99.99,,,-99.99,dwt +perl,2013-09-02 15:49:00,
2013-09-02 08:54:00,60.2,58.2,24.89,SSW,210,2.0,-999.0,93,-99.99,,,-99.99,dwt +perl,2013-09-02 15:54:00,
2013-09-02 09:04:00,60.8,58.5,24.89,SSW,210,2.0,-999.0,92,-99.99,,,-99.99,dwt +perl,2013-09-02 16:04:00,
2013-09-02 09:09:00,61.0,58.7,24.89,SSW,210,1.0,-999.0,92,-99.99,,,-99.99,dwt +perl,2013-09-02 16:09:00,
2013-09-02 09:19:00,61.3,58.6,24.90,SSW,210,3.0,-999.0,91,-99.99,,,-99.99,dwt +perl,2013-09-02 16:19:00,
2013-09-02 09:24:00,61.1,58.5,24.89,SSW,210,4.0,-999.0,91,-99.99,,,-99.99,dwt +perl,2013-09-02 16:24:00,
2013-09-02 09:29:00,61.4,58.1,24.90,SSW,210,4.0,-999.0,89,-99.99,,,-99.99,dwt +perl,2013-09-02 16:29:00,
2013-09-02 09:39:00,62.4,58.2,24.90,SSW,210,3.0,-999.0,86,-99.99,,,-99.99,dwt +perl,2013-09-02 16:39:00,
2013-09-02 09:44:00,61.9,58.0,24.89,SSW,210,7.0,-999.0,87,-99.99,,,-99.99,dwt +perl,2013-09-02 16:44:00,
2013-09-02 09:49:00,63.1,58.5,24.90,SSW,210,4.0,-999.0,85,-99.99,,,-99.99,dwt +perl,2013-09-02 16:49:00,
2013-09-02 10:04:00,63.8,58.2,24.90,SSW,208,5.0,-999.0,82,-99.99,,,-99.99,dwt +perl,2013-09-02 17:04:00,
2013-09-02 10:09:00,64.0,58.4,24.90,SSW,208,1.0,-999.0,82,-99.99,,,-99.99,dwt +perl,2013-09-02 17:09:00,
2013-09-02 10:29:00,65.3,58.2,24.90,SSW,212,2.0,-999.0,78,-99.99,,,-99.99,dwt +perl,2013-09-02 17:29:00,
2013-09-02 10:34:00,65.7,57.9,24.90,SSW,212,2.0,-999.0,76,-99.99,,,-99.99,dwt +perl,2013-09-02 17:34:00,
2013-09-02 10:39:00,66.5,58.7,24.90,SSW,212,1.0,-999.0,76,-99.99,,,-99.99,dwt +perl,2013-09-02 17:39:00,
2013-09-02 10:44:00,66.9,58.3,24.90,SSW,212,0.0,-999.0,74,-99.99,,,-99.99,dwt +perl,2013-09-02 17:44:00,
2013-09-02 10:49:00,67.4,58.4,24.90,SSW,212,2.0,-999.0,73,-99.99,,,-99.99,dwt +perl,2013-09-02 17:49:00,
2013-09-02 10:54:00,67.6,57.8,24.91,SSW,212,3.0,-999.0,71,-99.99,,,-99.99,dwt +perl,2013-09-02 17:54:00,
2013-09-02 10:59:00,67.6,58.2,24.91,South,189,3.0,-999.0,72,-99.99,,,-99.99,dwt +perl,2013-09-02 17:59:00,
2013-09-02 11:04:00,67.8,58.0,24.91,South,189,0.0,-999.0,71,-99.99,,,-99.99,dwt +perl,2013-09-02 18:04:00,
2013-09-02 11:09:00,68.3,58.1,24.91,SSE,156,0.0,-999.0,70,-99.99,,,-99.99,dwt +perl,2013-09-02 18:09:00,
2013-09-02 11:14:00,68.3,57.3,24.91,SSW,208,4.0,-999.0,68,-99.99,,,-99.99,dwt +perl,2013-09-02 18:14:00,
2013-09-02 11:19:00,68.5,57.5,24.91,South,185,1.0,-999.0,68,-99.99,,,-99.99,dwt +perl,2013-09-02 18:19:00,
2013-09-02 11:24:00,68.3,57.3,24.91,SSE,165,0.0,-999.0,68,-99.99,,,-99.99,dwt +perl,2013-09-02 18:24:00,
2013-09-02 11:29:00,69.1,56.8,24.90,SSE,166,0.0,-999.0,65,-99.99,,,-99.99,dwt +perl,2013-09-02 18:29:00,
2013-09-02 11:34:00,69.8,57.5,24.90,SSE,166,0.0,-999.0,65,-99.99,,,-99.99,dwt +perl,2013-09-02 18:34:00,
2013-09-02 11:39:00,70.0,56.8,24.90,SW,218,0.0,-999.0,63,-99.99,,,-99.99,dwt +perl,2013-09-02 18:39:00,
2013-09-02 11:44:00,69.5,57.2,24.90,WSW,240,1.0,-999.0,65,-99.99,,,-99.99,dwt +perl,2013-09-02 18:44:00,
2013-09-02 11:49:00,69.2,57.8,24.90,SW,235,4.0,-999.0,67,-99.99,,,-99.99,dwt +perl,2013-09-02 18:49:00,
2013-09-02 11:54:00,68.5,57.1,24.90,SW,235,0.0,-999.0,67,-99.99,,,-99.99,dwt +perl,2013-09-02 18:54:00,
2013-09-02 11:59:00,68.7,57.3,24.90,SW,235,0.0,-999.0,67,-99.99,,,-99.99,dwt +perl,2013-09-02 18:59:00,
2013-09-02 12:04:00,69.4,57.5,24.90,SW,235,3.0,-999.0,66,-99.99,,,-99.99,dwt +perl,2013-09-02 19:04:00,
2013-09-02 12:09:00,69.6,57.3,24.90,SW,235,0.0,-999.0,65,-99.99,,,-99.99,dwt +perl,2013-09-02 19:09:00,
2013-09-02 12:14:00,69.4,56.2,24.90,SW,235,0.0,-999.0,63,-99.99,,,-99.99,dwt +perl,2013-09-02 19:14:00,
2013-09-02 12:19:00,69.5,57.2,24.90,SW,235,0.0,-999.0,65,-99.99,,,-99.99,dwt +perl,2013-09-02 19:19:00,
2013-09-02 12:24:00,70.5,57.3,24.90,SW,235,0.0,-999.0,63,-99.99,,,-99.99,dwt +perl,2013-09-02 19:24:00,
2013-09-02 12:29:00,70.3,56.2,24.90,SW,235,2.0,-999.0,61,-99.99,,,-99.99,dwt +perl,2013-09-02 19:29:00,
2013-09-02 12:34:00,69.8,56.2,24.90,SW,235,3.0,-999.0,62,-99.99,,,-99.99,dwt +perl,2013-09-02 19:34:00,
2013-09-02 12:39:00,69.3,55.7,24.90,SW,229,1.0,-999.0,62,-99.99,,,-99.99,dwt +perl,2013-09-02 19:39:00,
2013-09-02 12:44:00,69.1,55.5,24.90,SW,229,3.0,-999.0,62,-99.99,,,-99.99,dwt +perl,2013-09-02 19:44:00,
2013-09-02 12:49:00,69.5,55.9,24.90,SW,229,1.0,-999.0,62,-99.99,,,-99.99,dwt +perl,2013-09-02 19:49:00,
2013-09-02 12:54:00,70.2,56.5,24.90,SW,229,0.0,-999.0,62,-99.99,,,-99.99,dwt +perl,2013-09-02 19:54:00,
2013-09-02 12:59:00,70.3,56.7,24.90,SW,229,0.0,-999.0,62,-99.99,,,-99.99,dwt +perl,2013-09-02 19:59:00,
2013-09-02 13:04:00,70.5,56.4,24.90,SW,229,1.0,-999.0,61,-99.99,,,-99.99,dwt +perl,2013-09-02 20:04:00,
2013-09-02 13:09:00,71.0,56.4,24.90,SW,229,1.0,-999.0,60,-99.99,,,-99.99,dwt +perl,2013-09-02 20:09:00,
2013-09-02 13:14:00,71.2,55.7,24.90,SW,229,1.0,-999.0,58,-99.99,,,-99.99,dwt +perl,2013-09-02 20:14:00,
2013-09-02 13:19:00,71.5,55.9,24.90,SW,229,0.0,-999.0,58,-99.99,,,-99.99,dwt +perl,2013-09-02 20:19:00,
2013-09-02 13:24:00,71.8,55.7,24.90,SW,230,2.0,-999.0,57,-99.99,,,-99.99,dwt +perl,2013-09-02 20:24:00,
2013-09-02 13:29:00,72.3,55.7,24.90,NE,50,6.0,-999.0,56,-99.99,,,-99.99,dwt +perl,2013-09-02 20:29:00,
2013-09-02 13:34:00,72.6,55.5,24.90,NE,40,3.0,-999.0,55,-99.99,,,-99.99,dwt +perl,2013-09-02 20:34:00,
2013-09-02 13:39:00,73.0,55.3,24.90,NE,40,4.0,-999.0,54,-99.99,,,-99.99,dwt +perl,2013-09-02 20:39:00,
2013-09-02 13:44:00,73.1,55.5,24.90,NE,43,3.0,-999.0,54,-99.99,,,-99.99,dwt +perl,2013-09-02 20:44:00,
2013-09-02 13:49:00,72.7,55.1,24.90,NE,44,1.0,-999.0,54,-99.99,,,-99.99,dwt +perl,2013-09-02 20:49:00,
2013-09-02 13:54:00,73.1,55.5,24.90,SSW,205,1.0,-999.0,54,-99.99,,,-99.99,dwt +perl,2013-09-02 20:54:00,
2013-09-02 13:59:00,73.1,54.9,24.90,South,191,4.0,-999.0,53,-99.99,,,-99.99,dwt +perl,2013-09-02 20:59:00,
2013-09-02 14:04:00,71.0,55.0,24.90,SSW,199,0.0,-999.0,57,-99.99,,,-99.99,dwt +perl,2013-09-02 21:04:00,
2013-09-02 14:09:00,69.8,53.9,24.89,SSW,212,4.0,-999.0,57,-99.99,,,-99.99,dwt +perl,2013-09-02 21:09:00,
2013-09-02 14:14:00,69.1,55.1,24.89,SSW,206,2.0,-999.0,61,-99.99,,,-99.99,dwt +perl,2013-09-02 21:14:00,
2013-09-02 14:19:00,69.2,55.2,24.89,SSW,204,0.0,-999.0,61,-99.99,,,-99.99,dwt +perl,2013-09-02 21:19:00,
2013-09-02 14:24:00,70.3,55.7,24.89,SSW,203,2.0,-999.0,60,-99.99,,,-99.99,dwt +perl,2013-09-02 21:24:00,
2013-09-02 14:29:00,70.8,55.3,24.89,SSW,194,3.0,-999.0,58,-99.99,,,-99.99,dwt +perl,2013-09-02 21:29:00,
2013-09-02 14:34:00,71.0,54.5,24.89,South,187,5.0,-999.0,56,-99.99,,,-99.99,dwt +perl,2013-09-02 21:34:00,
2013-09-02 14:39:00,70.9,54.9,24.89,South,187,2.0,-999.0,57,-99.99,,,-99.99,dwt +perl,2013-09-02 21:39:00,
2013-09-02 14:44:00,70.4,54.4,24.88,South,188,3.0,-999.0,57,-99.99,,,-99.99,dwt +perl,2013-09-02 21:44:00,
2013-09-02 14:49:00,69.1,54.6,24.88,SSW,199,0.0,-999.0,60,-99.99,,,-99.99,dwt +perl,2013-09-02 21:49:00,
2013-09-02 14:54:00,68.7,53.8,24.88,SW,235,5.0,-999.0,59,-99.99,,,-99.99,dwt +perl,2013-09-02 21:54:00,
2013-09-02 14:59:00,68.3,54.3,24.88,SW,216,11.0,-999.0,61,-99.99,,,-99.99,dwt +perl,2013-09-02 21:59:00,
2013-09-02 15:04:00,67.3,53.8,24.88,SW,228,8.0,-999.0,62,-99.99,,,-99.99,dwt +perl,2013-09-02 22:04:00,
2013-09-02 15:09:00,66.0,53.9,24.87,WSW,237,6.0,-999.0,65,-99.99,,,-99.99,dwt +perl,2013-09-02 22:09:00,
2013-09-02 15:14:00,65.6,53.9,24.87,SW,235,11.0,-999.0,66,-99.99,,,-99.99,dwt +perl,2013-09-02 22:14:00,
2013-09-02 15:19:00,66.1,54.0,24.87,SSE,157,6.0,-999.0,65,-99.99,,,-99.99,dwt +perl,2013-09-02 22:19:00,
2013-09-02 15:24:00,66.2,53.7,24.87,SW,220,3.0,-999.0,64,-99.99,,,-99.99,dwt +perl,2013-09-02 22:24:00,
2013-09-02 15:29:00,65.9,54.2,24.87,WSW,241,4.0,-999.0,66,-99.99,,,-99.99,dwt +perl,2013-09-02 22:29:00,
2013-09-02 15:34:00,66.5,54.4,24.87,SW,226,3.0,-999.0,65,-99.99,,,-99.99,dwt +perl,2013-09-02 22:34:00,
2013-09-02 15:39:00,67.0,54.4,24.87,SW,216,3.0,-999.0,64,-99.99,,,-99.99,dwt +perl,2013-09-02 22:39:00,
2013-09-02 15:44:00,67.5,54.5,24.87,SW,215,2.0,-999.0,63,-99.99,,,-99.99,dwt +perl,2013-09-02 22:44:00,
2013-09-02 15:49:00,68.6,55.5,24.87,SW,231,5.0,-999.0,63,-99.99,,,-99.99,dwt +perl,2013-09-02 22:49:00,
2013-09-02 15:54:00,69.3,54.8,24.87,WSW,246,4.0,-999.0,60,-99.99,,,-99.99,dwt +perl,2013-09-02 22:54:00,
2013-09-02 15:59:00,68.6,55.0,24.87,SW,222,7.0,-999.0,62,-99.99,,,-99.99,dwt +perl,2013-09-02 22:59:00,
2013-09-02 16:04:00,66.1,54.0,24.87,West,260,8.0,-999.0,65,-99.99,,,-99.99,dwt +perl,2013-09-02 23:04:00,
2013-09-02 16:09:00,65.3,54.5,24.87,SW,230,9.0,-999.0,68,-99.99,,,-99.99,dwt +perl,2013-09-02 23:09:00,
2013-09-02 16:14:00,66.1,54.8,24.87,SW,220,6.0,-999.0,67,-99.99,,,-99.99,dwt +perl,2013-09-02 23:14:00,
2013-09-02 16:19:00,66.7,55.4,24.87,WSW,248,1.0,-999.0,67,-99.99,,,-99.99,dwt +perl,2013-09-02 23:19:00,
2013-09-02 16:24:00,67.8,55.6,24.87,WSW,248,2.0,-999.0,65,-99.99,,,-99.99,dwt +perl,2013-09-02 23:24:00,
2013-09-02 16:29:00,68.3,55.2,24.87,WSW,248,0.0,-999.0,63,-99.99,,,-99.99,dwt +perl,2013-09-02 23:29:00,
2013-09-02 16:34:00,67.9,54.8,24.87,WSW,247,0.0,-999.0,63,-99.99,,,-99.99,dwt +perl,2013-09-02 23:34:00,
2013-09-02 16:39:00,67.6,55.0,24.87,WSW,247,1.0,-999.0,64,-99.99,,,-99.99,dwt +perl,2013-09-02 23:39:00,
2013-09-02 16:44:00,68.0,55.3,24.87,NW,322,0.0,-999.0,64,-99.99,,,-99.99,dwt +perl,2013-09-02 23:44:00,
2013-09-02 16:54:00,66.8,55.1,24.87,NW,318,1.0,-999.0,66,-99.99,,,-99.99,dwt +perl,2013-09-02 23:54:00,
2013-09-02 16:59:00,68.0,54.9,24.87,NW,318,2.0,-999.0,63,-99.99,,,-99.99,dwt +perl,2013-09-02 23:59:00,
2013-09-02 17:09:00,66.6,54.5,24.87,NW,315,0.0,-999.0,65,-99.99,,,-99.99,dwt +perl,2013-09-03 00:09:00,
2013-09-02 17:14:00,66.4,54.7,24.87,NW,315,0.0,-999.0,66,-99.99,,,-99.99,dwt +perl,2013-09-03 00:14:00,
2013-09-02 17:19:00,66.9,55.2,24.87,NW,315,0.0,-999.0,66,-99.99,,,-99.99,dwt +perl,2013-09-03 00:19:00,
2013-09-02 17:24:00,67.4,55.2,24.87,NW,315,1.0,-999.0,65,-99.99,,,-99.99,dwt +perl,2013-09-03 00:24:00,
2013-09-02 17:29:00,67.6,55.4,24.86,NW,315,0.0,-999.0,65,-99.99,,,-99.99,dwt +perl,2013-09-03 00:29:00,
2013-09-02 17:34:00,67.8,55.2,24.86,NW,314,1.0,-999.0,64,-99.99,,,-99.99,dwt +perl,2013-09-03 00:34:00,
2013-09-02 17:39:00,66.5,54.8,24.86,NW,314,0.0,-999.0,66,-99.99,,,-99.99,dwt +perl,2013-09-03 00:39:00,
2013-09-02 17:44:00,67.6,55.0,24.86,NW,314,0.0,-999.0,64,-99.99,,,-99.99,dwt +perl,2013-09-03 00:44:00,
2013-09-02 17:49:00,65.6,54.7,24.86,NW,314,2.0,-999.0,68,-99.99,,,-99.99,dwt +perl,2013-09-03 00:49:00,
2013-09-02 17:54:00,65.9,54.6,24.86,NW,314,1.0,-999.0,67,-99.99,,,-99.99,dwt +perl,2013-09-03 00:54:00,
2013-09-02 18:09:00,66.7,55.4,24.86,NW,314,0.0,-999.0,67,-99.99,,,-99.99,dwt +perl,2013-09-03 01:09:00,
2013-09-02 18:14:00,67.7,55.5,24.86,NW,314,0.0,-999.0,65,-99.99,,,-99.99,dwt +perl,2013-09-03 01:14:00,
2013-09-02 18:19:00,68.0,55.8,24.86,NW,312,3.0,-999.0,65,-99.99,,,-99.99,dwt +perl,2013-09-03 01:19:00,
2013-09-02 18:24:00,68.9,55.8,24.86,NW,312,0.0,-999.0,63,-99.99,,,-99.99,dwt +perl,2013-09-03 01:24:00,
2013-09-02 18:34:00,68.6,55.5,24.86,NW,312,0.0,-999.0,63,-99.99,,,-99.99,dwt +perl,2013-09-03 01:34:00,
2013-09-02 18:39:00,69.0,55.4,24.86,NW,312,1.0,-999.0,62,-99.99,,,-99.99,dwt +perl,2013-09-03 01:39:00,
2013-09-02 18:49:00,68.1,55.5,24.86,NW,312,0.0,-999.0,64,-99.99,,,-99.99,dwt +perl,2013-09-03 01:49:00,
2013-09-02 18:54:00,67.9,55.3,24.86,NW,312,0.0,-999.0,64,-99.99,,,-99.99,dwt +perl,2013-09-03 01:54:00,
2013-09-02 18:59:00,65.1,54.7,24.86,NW,313,3.0,-999.0,69,-99.99,,,-99.99,dwt +perl,2013-09-03 01:59:00,
2013-09-02 19:14:00,64.2,54.6,24.86,NW,314,2.0,-999.0,71,-99.99,,,-99.99,dwt +perl,2013-09-03 02:14:00,
2013-09-02 19:19:00,63.7,54.5,24.86,NW,315,2.0,-999.0,72,-99.99,,,-99.99,dwt +perl,2013-09-03 02:19:00,
2013-09-02 19:24:00,63.3,54.9,24.86,NW,316,2.0,-999.0,74,-99.99,,,-99.99,dwt +perl,2013-09-03 02:24:00,
2013-09-02 19:29:00,63.0,54.6,24.86,NW,316,1.0,-999.0,74,-99.99,,,-99.99,dwt +perl,2013-09-03 02:29:00,
2013-09-02 19:39:00,62.7,55.0,24.86,NE,40,5.0,-999.0,76,-99.99,,,-99.99,dwt +perl,2013-09-03 02:39:00,
2013-09-02 19:44:00,62.7,55.0,24.86,NW,317,1.0,-999.0,76,-99.99,,,-99.99,dwt +perl,2013-09-03 02:44:00,
2013-09-02 19:49:00,62.6,54.9,24.86,NE,49,2.0,-999.0,76,-99.99,,,-99.99,dwt +perl,2013-09-03 02:49:00,
2013-09-02 19:54:00,62.7,55.0,24.86,NE,48,1.0,-999.0,76,-99.99,,,-99.99,dwt +perl,2013-09-03 02:54:00,
2013-09-02 20:09:00,62.5,54.8,24.86,NE,49,1.0,-999.0,76,-99.99,,,-99.99,dwt +perl,2013-09-03 03:09:00,
2013-09-02 20:14:00,62.5,55.2,24.86,NE,48,2.0,-999.0,77,-99.99,,,-99.99,dwt +perl,2013-09-03 03:14:00,
2013-09-02 20:19:00,62.6,55.3,24.86,NE,49,2.0,-999.0,77,-99.99,,,-99.99,dwt +perl,2013-09-03 03:19:00,
2013-09-02 20:34:00,62.5,55.5,24.87,NE,49,0.0,-999.0,78,-99.99,,,-99.99,dwt +perl,2013-09-03 03:34:00,
2013-09-02 20:39:00,62.5,55.5,24.87,NE,49,1.0,-999.0,78,-99.99,,,-99.99,dwt +perl,2013-09-03 03:39:00,
2013-09-02 20:44:00,62.3,55.3,24.87,NE,49,0.0,-999.0,78,-99.99,,,-99.99,dwt +perl,2013-09-03 03:44:00,
2013-09-02 20:49:00,62.1,54.8,24.87,NE,49,1.0,-999.0,77,-99.99,,,-99.99,dwt +perl,2013-09-03 03:49:00,
2013-09-02 20:54:00,61.8,54.9,24.87,NE,49,1.0,-999.0,78,-99.99,,,-99.99,dwt +perl,2013-09-03 03:54:00,
2013-09-02 20:59:00,61.7,54.8,24.87,NE,49,0.0,-999.0,78,-99.99,,,-99.99,dwt +perl,2013-09-03 03:59:00,
2013-09-02 21:04:00,61.4,54.5,24.88,NE,49,1.0,-999.0,78,-99.99,,,-99.99,dwt +perl,2013-09-03 04:04:00,
2013-09-02 21:09:00,61.1,54.2,24.87,NE,49,1.0,-999.0,78,-99.99,,,-99.99,dwt +perl,2013-09-03 04:09:00,
2013-09-02 21:14:00,60.8,54.2,24.88,NE,49,0.0,-999.0,79,-99.99,,,-99.99,dwt +perl,2013-09-03 04:14:00,
2013-09-02 21:19:00,60.6,54.4,24.87,NE,49,2.0,-999.0,80,-99.99,,,-99.99,dwt +perl,2013-09-03 04:19:00,
2013-09-02 21:24:00,60.6,54.4,24.88,NE,49,3.0,-999.0,80,-99.99,,,-99.99,dwt +perl,2013-09-03 04:24:00,
2013-09-02 21:29:00,60.5,54.3,24.88,NE,49,2.0,-999.0,80,-99.99,,,-99.99,dwt +perl,2013-09-03 04:29:00,
2013-09-02 21:34:00,60.3,54.1,24.88,NE,49,4.0,-999.0,80,-99.99,,,-99.99,dwt +perl,2013-09-03 04:34:00,
2013-09-02 21:39:00,60.2,54.0,24.88,NE,50,4.0,-999.0,80,-99.99,,,-99.99,dwt +perl,2013-09-03 04:39:00,
2013-09-02 21:44:00,60.2,54.3,24.88,NE,54,5.0,-999.0,81,-99.99,,,-99.99,dwt +perl,2013-09-03 04:44:00,
2013-09-02 21:49:00,60.2,54.3,24.88,ENE,60,4.0,-999.0,81,-99.99,,,-99.99,dwt +perl,2013-09-03 04:49:00,
2013-09-02 21:54:00,60.3,54.4,24.88,ENE,69,5.0,-999.0,81,-99.99,,,-99.99,dwt +perl,2013-09-03 04:54:00,
2013-09-02 21:59:00,60.3,55.1,24.88,ENE,69,4.0,-999.0,83,-99.99,,,-99.99,dwt +perl,2013-09-03 04:59:00,
2013-09-02 22:04:00,60.3,55.1,24.88,ENE,71,5.0,-999.0,83,-99.99,,,-99.99,dwt +perl,2013-09-03 05:04:00,
2013-09-02 22:09:00,60.2,55.3,24.88,ENE,71,2.0,-999.0,84,-99.99,,,-99.99,dwt +perl,2013-09-03 05:09:00,
2013-09-02 22:14:00,60.2,55.3,24.88,ENE,71,3.0,-999.0,84,-99.99,,,-99.99,dwt +perl,2013-09-03 05:14:00,
2013-09-02 22:19:00,60.4,55.2,24.88,ENE,71,3.0,-999.0,83,-99.99,,,-99.99,dwt +perl,2013-09-03 05:19:00,
2013-09-02 22:24:00,60.6,55.4,24.88,ENE,71,3.0,-999.0,83,-99.99,,,-99.99,dwt +perl,2013-09-03 05:24:00,
2013-09-02 22:29:00,60.6,55.7,24.88,ENE,71,2.0,-999.0,84,-99.99,,,-99.99,dwt +perl,2013-09-03 05:29:00,
2013-09-02 22:34:00,60.6,55.7,24.88,ENE,71,1.0,-999.0,84,-99.99,,,-99.99,dwt +perl,2013-09-03 05:34:00,
2013-09-02 22:39:00,60.6,55.7,24.88,ENE,71,1.0,-999.0,84,-99.99,,,-99.99,dwt +perl,2013-09-03 05:39:00,
2013-09-02 22:44:00,60.6,55.4,24.88,ENE,71,1.0,-999.0,83,-99.99,,,-99.99,dwt +perl,2013-09-03 05:44:00,
2013-09-02 22:49:00,60.5,55.3,24.88,East,79,5.0,-999.0,83,-99.99,,,-99.99,dwt +perl,2013-09-03 05:49:00,
2013-09-02 22:54:00,60.5,55.3,24.88,East,81,5.0,-999.0,83,-99.99,,,-99.99,dwt +perl,2013-09-03 05:54:00,
2013-09-02 22:59:00,60.4,55.2,24.88,East,80,3.0,-999.0,83,-99.99,,,-99.99,dwt +perl,2013-09-03 05:59:00,
2013-09-02 23:04:00,60.3,55.1,24.88,East,81,2.0,-999.0,83,-99.99,,,-99.99,dwt +perl,2013-09-03 06:04:00,
2013-09-02 23:09:00,60.2,55.0,24.88,East,81,1.0,-999.0,83,-99.99,,,-99.99,dwt +perl,2013-09-03 06:09:00,
2013-09-02 23:14:00,60.3,55.1,24.88,East,81,2.0,-999.0,83,-99.99,,,-99.99,dwt +perl,2013-09-03 06:14:00,
2013-09-02 23:19:00,60.3,55.1,24.89,East,81,3.0,-999.0,83,-99.99,,,-99.99,dwt +perl,2013-09-03 06:19:00,
2013-09-02 23:24:00,60.4,55.2,24.89,East,81,5.0,-999.0,83,-99.99,,,-99.99,dwt +perl,2013-09-03 06:24:00,
2013-09-02 23:29:00,60.4,55.2,24.89,East,81,6.0,-999.0,83,-99.99,,,-99.99,dwt +perl,2013-09-03 06:29:00,
2013-09-02 23:34:00,60.3,55.1,24.89,East,81,1.0,-999.0,83,-99.99,,,-99.99,dwt +perl,2013-09-03 06:34:00,
2013-09-02 23:39:00,60.2,55.0,24.89,East,81,3.0,-999.0,83,-99.99,,,-99.99,dwt +perl,2013-09-03 06:39:00,
2013-09-02 23:44:00,60.3,55.4,24.89,East,84,3.0,-999.0,84,-99.99,,,-99.99,dwt +perl,2013-09-03 06:44:00,
2013-09-02 23:49:00,60.3,55.1,24.88,East,85,2.0,-999.0,83,-99.99,,,-99.99,dwt +perl,2013-09-03 06:49:00,
2013-09-02 23:54:00,60.2,55.3,24.89,East,94,5.0,-999.0,84,-99.99,,,-99.99,dwt +perl,2013-09-03 06:54:00,
2013-09-02 23:59:00,60.2,55.3,24.89,SE,144,5.0,-999.0,84,-99.99,,,-99.99,dwt +perl,2013-09-03 06:59:00,